This is the latest recevied weather packets stored in our database for station/object DK8RG-15. If no packets are shown the sender has not sent any weather packets the latest 10 day(s).
| Time | Temp. | Humidity | Pressure | Rain* | Wind** | Luminosity | Snow |
|---|---|---|---|---|---|---|---|
| 1777552816 | 15° C | 30% | 1026.3 hPa | 0 mm | - | - | - |
| 1777552215 | 15° C | 30% | 1025.3 hPa | 0 mm | - | - | - |
| 1777551616 | 15° C | 30% | 1026.4 hPa | 0 mm | - | - | - |
| 1777551016 | 15° C | 30% | 1026.4 hPa | 0 mm | - | - | - |
| 1777550416 | 13.89° C | 31% | 1026.4 hPa | 0 mm | - | - | - |
| 1777549817 | 13.89° C | 30% | 1026.4 hPa | 0 mm | - | - | - |
| 1777549216 | 13.89° C | 30% | 1026.4 hPa | 0 mm | - | - | - |
| 1777548616 | 13.89° C | 30% | 1026.5 hPa | 0 mm | - | - | - |
| 1777548017 | 13.89° C | 31% | 1026.5 hPa | 0 mm | - | - | - |
| 1777547417 | 13.33° C | 31% | 1026.5 hPa | 0 mm | - | - | - |
| 1777546817 | 13.33° C | 30% | 1026.5 hPa | 0 mm | - | - | - |
| 1777546217 | 12.78° C | 30% | 1026.4 hPa | 0 mm | - | - | - |
| 1777545617 | 12.78° C | 31% | 1026.4 hPa | 0 mm | - | - | - |
| 1777545016 | 12.78° C | 31% | 1026.4 hPa | 0 mm | - | - | - |
| 1777544416 | 12.78° C | 31% | 1026.4 hPa | 0 mm | - | - | - |
| 1777543817 | 12.78° C | 31% | 1026.4 hPa | 0 mm | - | - | - |
| 1777543217 | 12.22° C | 32% | 1026.4 hPa | 0 mm | - | - | - |
| 1777542618 | 12.22° C | 32% | 1026.4 hPa | 0 mm | - | - | - |
| 1777542017 | 12.22° C | 33% | 1027.4 hPa | 0 mm | - | - | - |
| 1777541417 | 12.22° C | 33% | 1027.3 hPa | 0 mm | - | - | - |
| 1777540817 | 11.67° C | 34% | 1027.3 hPa | 0 mm | - | - | - |
| 1777540218 | 11.11° C | 34% | 1027.3 hPa | 0 mm | - | - | - |
| 1777539618 | 10.56° C | 34% | 1027.2 hPa | 0 mm | - | - | - |
| 1777539017 | 10.56° C | 36% | 1027.3 hPa | 0 mm | - | - | - |
| 1777538417 | 10.56° C | 37% | 1027.3 hPa | 0 mm | - | - | - |
* Rain latest hour (hover to see other rain measurements)
** Current wind speed in m/s (hover to see current wind gust speed)